| time (UTC) | temp F | wind direction | speed knots | gust knots | rain 1hr in | rain 24hr in | rain mn in | humidity % | barometer mb |
| 20260901113008 | 69 | 0.0 | 0.0 | 0.00 | 0.10 | 0.02 | 71 | 1017.4 | |
| 20260901112600 | 69 | 0.0 | 0.0 | 0.00 | 0.10 | 0.02 | 71 | 1017.4 | |
| 20260901112051 | 69 | 0.0 | 0.0 | 0.00 | 0.10 | 0.02 | 71 | 1017.5 | |
| 20260901111520 | 67 | 0.0 | 0.0 | 0.00 | 0.10 | 0.02 | 73 | 1017.4 | |
| 20260901111009 | 67 | 0.0 | 0.0 | 0.00 | 0.10 | 0.02 | 73 | 1017.4 | |
| 20260901110601 | 67 | 0.0 | 0.0 | 0.01 | 0.10 | 0.02 | 72 | 1017.5 | |
| 20260901110020 | 67 | 0.0 | 0.0 | 0.02 | 0.10 | 0.02 | 70 | 1017.4 | |
| 20260901105510 | 68 | 0.0 | 0.0 | 0.02 | 0.10 | 0.02 | 74 | 1017.5 | |
| 20260901105104 | 68 | 0.0 | 0.0 | 0.02 | 0.10 | 0.02 | 76 | 1017.4 | |
| 20260901104519 | 67 | 0.0 | 0.0 | 0.02 | 0.10 | 0.02 | 77 | 1017.4 | |
| 20260901104012 | 67 | 0.0 | 0.0 | 0.02 | 0.10 | 0.02 | 79 | 1017.5 | |
| 20260901103538 | 67 | 0.0 | 0.0 | 0.02 | 0.10 | 0.02 | 79 | 1017.4 | |
| 20260901103100 | 68 | 0.0 | 0.0 | 0.02 | 0.10 | 0.02 | 79 | 1017.5 | |
| 20260831162546 | 0 | 0.0 | 0.0 | 0.05 | 0.09 | 0.09 | 1009.9 | ||
| 20260831162035 | 0 | 0.0 | 0.0 | 0.05 | 0.09 | 0.09 | 1009.8 | ||
| 20260831161555 | 66 | 0.0 | 0.0 | 0.01 | 0.05 | 0.05 | 75 | 1009.8 | |
| 20260831161048 | 66 | 0.0 | 0.0 | 0.00 | 0.04 | 0.04 | 74 | 1009.8 | |
| 20260831160537 | 66 | 0.0 | 0.0 | 0.00 | 0.04 | 0.04 | 74 | 1009.7 | |
| 20260831160055 | 66 | 0.0 | 0.0 | 0.00 | 0.04 | 0.04 | 72 | 1009.6 | |
| 20260831155545 | 66 | 0.0 | 0.0 | 0.00 | 0.04 | 0.04 | 70 | 1009.7 | |
| 20260831155035 | 66 | 0.0 | 0.0 | 0.00 | 0.04 | 0.04 | 71 | 1009.5 | |
| 20260831154603 | 66 | 0.0 | 0.0 | 0.00 | 0.04 | 0.04 | 71 | 1009.6 | |
| 20260831154045 | 67 | 0.0 | 0.0 | 0.00 | 0.04 | 0.04 | 72 | 1009.6 | |
| 20260831153535 | 68 | 0.0 | 0.0 | 0.00 | 0.04 | 0.04 | 71 | 1009.4 | |
| 20260831153101 | 68 | 0.0 | 0.0 | 0.00 | 0.04 | 0.04 | 73 | 1009.4 | |
| 20260831152546 | 68 | 0.0 | 0.0 | 0.00 | 0.04 | 0.04 | 75 | 1009.3 | |
| 20260831152036 | 67 | 0.0 | 0.0 | 0.00 | 0.04 | 0.04 | 77 | 1009.2 | |
| 20260831151505 | 66 | 0.0 | 0.0 | 0.00 | 0.04 | 0.04 | 79 | 1009.2 | |
| 20260831151057 | 65 | 0.0 | 0.0 | 0.00 | 0.04 | 0.04 | 79 | 1009.2 | |
| 20260831150543 | 65 | 0.0 | 0.0 | 0.00 | 0.04 | 0.04 | 80 | 1009.1 | |
| 20260831150007 | 65 | 0.0 | 0.0 | 0.00 | 0.04 | 0.04 | 82 | 1009.0 | |
| 20260831145600 | 65 | 0.0 | 0.0 | 0.00 | 0.04 | 0.04 | 82 | 1009.0 | |
| 20260831145045 | 65 | 0.0 | 0.0 | 0.00 | 0.04 | 0.04 | 84 | 1008.9 | |
| 20260831144512 | 64 | 0.0 | 0.0 | 0.00 | 0.04 | 0.04 | 84 | 1008.8 | |
| 20260831144055 | 64 | 0.0 | 0.0 | 0.00 | 0.04 | 0.04 | 84 | 1008.8 | |
| 20260831143544 | 64 | 0.0 | 0.0 | 0.00 | 0.04 | 0.04 | 84 | 1008.7 | |
| 20260831143102 | 64 | 0.0 | 0.0 | 0.00 | 0.04 | 0.04 | 83 | 1008.6 | |
| 20260831142545 | 64 | 0.0 | 0.0 | 0.00 | 0.04 | 0.04 | 82 | 1008.6 | |
| 20260831142037 | 64 | 0.0 | 0.0 | 0.00 | 0.04 | 0.04 | 82 | 1008.5 | |
| 20260831141610 | 64 | 0.0 | 0.0 | 0.00 | 0.04 | 0.04 | 82 | 1008.5 | |
| 20260831141048 | 64 | 0.0 | 0.0 | 0.00 | 0.04 | 0.04 | 82 | 1008.4 | |
| 20260831140535 | 64 | 0.0 | 0.0 | 0.01 | 0.04 | 0.04 | 81 | 1008.3 | |
| 20260831140056 | 64 | 0.0 | 0.0 | 0.02 | 0.04 | 0.04 | 80 | 1008.3 | |
| 20260831135546 | 64 | 0.0 | 0.0 | 0.02 | 0.04 | 0.04 | 80 | 1008.4 | |
| 20260831135039 | 64 | 0.0 | 0.0 | 0.03 | 0.04 | 0.04 | 81 | 1008.3 | |
| 20260831134558 | 64 | 0.0 | 0.0 | 0.04 | 0.04 | 0.04 | 80 | 1008.4 | |
| 20260831134046 | 64 | 0.0 | 0.0 | 0.04 | 0.04 | 0.04 | 81 | 1008.2 | |
| 20260831133537 | 63 | 0.0 | 0.0 | 0.04 | 0.04 | 0.04 | 81 | 1008.2 | |
| 20260831133058 | 63 | 0.0 | 0.0 | 0.04 | 0.04 | 0.04 | 84 | 1008.2 | |
| 20260831132548 | 61 | 0.0 | 0.0 | 0.04 | 0.04 | 0.04 | 83 | 1008.1 | |
| 20260831132043 | 61 | 0.0 | 0.0 | 0.04 | 0.04 | 0.04 | 84 | 1008.0 | |
| 20260831131602 | 60 | 0.0 | 0.0 | 0.04 | 0.04 | 0.04 | 82 | 1008.3 | |
| 20260831131049 | 61 | 0.0 | 0.0 | 0.04 | 0.04 | 0.04 | 80 | 1008.4 | |
| 20260831130539 | 62 | 0.0 | 0.0 | 0.03 | 0.03 | 0.03 | 79 | 1008.4 | |
| 20260831130059 | 64 | 0.0 | 0.0 | 0.02 | 0.02 | 0.02 | 77 | 1008.4 | |
| 20260831125549 | 66 | 0.0 | 0.0 | 0.02 | 0.02 | 0.02 | 76 | 1008.3 | |
| 20260831125038 | 67 | 0.0 | 0.0 | 0.01 | 0.01 | 0.01 | 73 | 1008.0 | |
| 20260831124600 | 68 | 0.0 | 0.0 | 0.00 | 0.00 | 0.00 | 70 | 1007.7 | |
| 20260831124046 | 68 | 0.0 | 0.0 | 0.00 | 0.00 | 0.00 | 68 | 1007.7 | |
| 20260831123537 | 69 | 0.0 | 0.0 | 0.00 | 0.00 | 0.00 | 66 | 1007.6 | |
| 20260831123058 | 69 | 0.0 | 0.0 | 0.00 | 0.00 | 0.00 | 64 | 1007.5 | |
| 20260831122551 | 69 | 0.0 | 0.0 | 0.00 | 0.00 | 0.00 | 63 | 1007.4 | |
| 20260831122037 | 70 | 0.0 | 0.0 | 0.00 | 0.00 | 0.00 | 62 | 1007.3 | |
| 20260831121559 | 71 | 0.0 | 0.0 | 0.00 | 0.00 | 0.00 | 60 | 1007.4 | |
| 20260831121049 | 71 | 0.0 | 0.0 | 0.00 | 0.00 | 0.00 | 61 | 1007.4 | |
| 20260831120540 | 72 | 0.0 | 0.0 | 0.00 | 0.00 | 0.00 | 61 | 1007.5 | |
| 20260831120059 | 71 | 0.0 | 0.0 | 0.00 | 0.00 | 0.00 | 59 | 1007.3 | |
| 20260831115548 | 72 | 0.0 | 0.0 | 0.00 | 0.00 | 0.00 | 60 | 1007.3 | |
| 20260831115038 | 72 | 0.0 | 0.0 | 0.00 | 0.00 | 0.00 | 58 | 1007.3 | |
| 20260831114559 | 72 | 0.0 | 0.0 | 0.00 | 0.00 | 0.00 | 58 | 1007.2 | |
| 20260831114049 | 71 | 0.0 | 0.0 | 0.00 | 0.00 | 0.00 | 59 | 1007.3 | |
| 20260831113540 | 72 | 0.0 | 0.0 | 0.00 | 0.00 | 0.00 | 59 | 1007.2 | |
| 20260831113101 | 71 | 0.0 | 0.0 | 0.00 | 0.00 | 0.00 | 61 | 1007.1 |